DAL823 MDSD-KMIA

Flight info

Callsign DAL823
Flight time 1h 51m
Altitude 30000
Route RETAK2J RETAK UM348 ALBBE Y589 MADIZ VIICE2
Aircraft B773/H-VGDW/C

Departure

Time 2026-05-08 20:00
Airport Las Américas International Airport (MDSD)

Arrival

Time 2026-05-08 21:51
Airport Miami International Airport (KMIA)
Time Latitude Longitude Altitude Speed Heading
2026-05-08 19:31 18.43108 -69.67541 72 ft 0 kts 290°
2026-05-08 19:49 18.43105 -69.67533 72 ft 2 kts 290°
2026-05-08 19:50 18.43100 -69.67517 62 ft 2 kts 290°
2026-05-08 19:50 18.43095 -69.67502 62 ft 2 kts 290°
2026-05-08 19:50 18.43088 -69.67486 62 ft 2 kts 294°
2026-05-08 19:50 18.43082 -69.67471 62 ft 2 kts 304°
2026-05-08 19:51 18.43072 -69.67458 62 ft 2 kts 322°
2026-05-08 19:51 18.43057 -69.67449 62 ft 2 kts 341°
2026-05-08 19:51 18.43054 -69.67448 62 ft 0 kts 345°
2026-05-08 19:54 18.43061 -69.67450 63 ft 6 kts 345°
2026-05-08 19:54 18.43132 -69.67470 68 ft 11 kts 345°
2026-05-08 19:54 18.43208 -69.67494 65 ft 11 kts 342°
2026-05-08 19:54 18.43283 -69.67521 66 ft 11 kts 341°
2026-05-08 19:55 18.43360 -69.67541 62 ft 11 kts
2026-05-08 19:55 18.43437 -69.67529 63 ft 11 kts 354°
2026-05-08 19:55 18.43513 -69.67553 67 ft 11 kts 339°
2026-05-08 19:55 18.43586 -69.67583 67 ft 11 kts 339°
2026-05-08 19:56 18.43660 -69.67614 67 ft 11 kts 339°
2026-05-08 19:56 18.43730 -69.67642 67 ft 11 kts 339°
2026-05-08 19:56 18.43806 -69.67671 67 ft 11 kts 339°
2026-05-08 19:56 18.43879 -69.67701 67 ft 11 kts 339°
2026-05-08 19:57 18.43952 -69.67731 67 ft 11 kts 339°
2026-05-08 19:57 18.44027 -69.67761 67 ft 11 kts 339°
2026-05-08 19:57 18.44102 -69.67780 64 ft 11 kts 14°
2026-05-08 19:57 18.44147 -69.67714 62 ft 11 kts 66°
2026-05-08 19:58 18.44177 -69.67635 71 ft 11 kts 69°
2026-05-08 19:58 18.44219 -69.67566 64 ft 11 kts 39°
2026-05-08 19:58 18.44289 -69.67526 64 ft 11 kts 26°
2026-05-08 19:58 18.44354 -69.67480 63 ft 11 kts 50°
2026-05-08 19:59 18.44346 -69.67405 63 ft 11 kts 136°
2026-05-08 19:59 18.44305 -69.67382 65 ft 0 kts 161°
2026-05-08 19:59 18.44304 -69.67381 65 ft 3 kts 161°
2026-05-08 20:00 18.44063 -69.67293 65 ft 76 kts 161°
2026-05-08 20:00 18.43300 -69.67014 71 ft 153 kts 161°
2026-05-08 20:00 18.42037 -69.66557 160 ft 214 kts 161°
2026-05-08 20:00 18.40616 -69.66007 1131 ft 215 kts 157°
2026-05-08 20:01 18.39229 -69.65481 2355 ft 219 kts 165°
2026-05-08 20:01 18.37598 -69.65443 2809 ft 261 kts 191°
2026-05-08 20:01 18.35893 -69.66305 3115 ft 296 kts 219°
2026-05-08 20:01 18.34581 -69.67969 4090 ft 297 kts 244°
2026-05-08 20:02 18.33864 -69.69952 5383 ft 281 kts 255°
2026-05-08 20:02 18.33399 -69.71899 6548 ft 269 kts 259°
2026-05-08 20:02 18.33074 -69.73824 7147 ft 275 kts 263°
2026-05-08 20:02 18.32835 -69.75894 7498 ft 289 kts 264°
2026-05-08 20:03 18.32732 -69.78042 7883 ft 296 kts 283°
2026-05-08 20:03 18.33525 -69.79991 8432 ft 293 kts 305°
2026-05-08 20:03 18.34582 -69.81863 8929 ft 300 kts 300°
2026-05-08 20:03 18.35534 -69.83829 9459 ft 305 kts 298°
2026-05-08 20:04 18.36468 -69.85847 9948 ft 310 kts 298°
2026-05-08 20:04 18.37415 -69.87916 10317 ft 319 kts 298°
2026-05-08 20:04 18.38402 -69.90069 10594 ft 332 kts 297°
2026-05-08 20:04 18.39424 -69.92295 10863 ft 345 kts 298°
2026-05-08 20:05 18.40486 -69.94607 11140 ft 358 kts 298°
2026-05-08 20:05 18.41594 -69.97016 11419 ft 371 kts 297°
2026-05-08 20:05 18.42732 -69.99490 11818 ft 378 kts 297°
2026-05-08 20:05 18.43881 -70.01991 12315 ft 383 kts 298°
2026-05-08 20:06 18.45052 -70.04537 12839 ft 388 kts 297°
2026-05-08 20:06 18.46232 -70.07107 13332 ft 393 kts 297°
2026-05-08 20:06 18.47434 -70.09724 13836 ft 398 kts 297°
2026-05-08 20:06 18.48664 -70.12354 14255 ft 402 kts 301°
2026-05-08 20:07 18.50344 -70.14686 14650 ft 400 kts 320°
2026-05-08 20:07 18.52469 -70.16574 15126 ft 402 kts 322°
2026-05-08 20:07 18.54641 -70.18465 15563 ft 405 kts 322°
2026-05-08 20:07 18.56815 -70.20369 16028 ft 408 kts 322°
2026-05-08 20:08 18.58290 -70.21670 16362 ft 410 kts 322°
2026-05-08 20:08 18.60446 -70.23586 16835 ft 411 kts 322°
2026-05-08 20:08 18.62655 -70.25565 17310 ft 412 kts 322°
2026-05-08 20:08 18.64842 -70.27534 17778 ft 414 kts 322°
2026-05-08 20:09 18.67038 -70.29516 18209 ft 416 kts 322°
2026-05-08 20:09 18.69234 -70.31503 18555 ft 419 kts 322°
2026-05-08 20:09 18.71448 -70.33507 18885 ft 421 kts 322°
2026-05-08 20:09 18.73676 -70.35524 19216 ft 423 kts 322°
2026-05-08 20:10 18.75914 -70.37550 19565 ft 424 kts 322°
2026-05-08 20:10 18.78184 -70.39606 19908 ft 426 kts 322°
2026-05-08 20:10 18.80437 -70.41648 20264 ft 426 kts 322°
2026-05-08 20:10 18.82682 -70.43683 20609 ft 427 kts 322°
2026-05-08 20:11 18.84943 -70.45734 20959 ft 428 kts 322°
2026-05-08 20:11 18.87198 -70.47780 21312 ft 428 kts 322°
2026-05-08 20:11 18.89445 -70.49819 21693 ft 427 kts 322°
2026-05-08 20:11 18.91676 -70.51843 22033 ft 427 kts 322°
2026-05-08 20:12 18.93950 -70.53909 22409 ft 426 kts 322°
2026-05-08 20:12 18.96197 -70.55951 22759 ft 426 kts 322°
2026-05-08 20:12 18.98448 -70.57997 23043 ft 426 kts 321°
2026-05-08 20:12 19.00691 -70.60037 23362 ft 426 kts 321°
2026-05-08 20:13 19.02930 -70.62073 23649 ft 425 kts 321°
2026-05-08 20:13 19.05166 -70.64107 23907 ft 425 kts 321°
2026-05-08 20:13 19.07414 -70.66154 24163 ft 424 kts 321°
2026-05-08 20:13 19.09636 -70.68176 24418 ft 423 kts 321°
2026-05-08 20:14 19.11861 -70.70202 24660 ft 422 kts 321°
2026-05-08 20:14 19.14076 -70.72222 24915 ft 420 kts 321°
2026-05-08 20:14 19.16286 -70.74236 25183 ft 418 kts 321°
2026-05-08 20:14 19.18481 -70.76239 25432 ft 416 kts 321°
2026-05-08 20:15 19.20677 -70.78243 25697 ft 414 kts 321°
2026-05-08 20:15 19.22859 -70.80232 25769 ft 421 kts 321°
2026-05-08 20:15 19.25101 -70.82275 25832 ft 429 kts 321°
2026-05-08 20:15 19.27380 -70.84353 25886 ft 437 kts 321°
2026-05-08 20:16 19.29713 -70.86483 25950 ft 445 kts 321°
2026-05-08 20:16 19.32070 -70.88637 26009 ft 453 kts 321°
2026-05-08 20:16 19.34479 -70.90839 26059 ft 460 kts 321°
2026-05-08 20:16 19.36927 -70.93079 26124 ft 467 kts 321°
2026-05-08 20:17 19.39394 -70.95337 26242 ft 471 kts 321°
2026-05-08 20:17 19.41879 -70.97613 26493 ft 472 kts 321°
2026-05-08 20:17 19.44362 -70.99887 26782 ft 473 kts 321°
2026-05-08 20:17 19.46842 -71.02161 27015 ft 474 kts 321°
2026-05-08 20:18 19.49349 -71.04459 27233 ft 476 kts 321°
2026-05-08 20:18 19.51847 -71.06751 27463 ft 478 kts 321°
2026-05-08 20:18 19.54377 -71.09072 27710 ft 479 kts 321°
2026-05-08 20:18 19.56898 -71.11386 27922 ft 480 kts 321°
2026-05-08 20:19 19.59430 -71.13710 28140 ft 482 kts 321°
2026-05-08 20:19 19.61960 -71.16032 28331 ft 484 kts 321°
2026-05-08 20:19 19.64510 -71.18375 28529 ft 485 kts 320°
2026-05-08 20:19 19.67072 -71.20731 28734 ft 486 kts 320°
2026-05-08 20:20 19.69624 -71.23078 28920 ft 488 kts 320°
2026-05-08 20:20 19.72191 -71.25441 29130 ft 489 kts 320°
2026-05-08 20:20 19.74762 -71.27808 29335 ft 489 kts 320°
2026-05-08 20:20 19.77335 -71.30178 29629 ft 488 kts 320°
2026-05-08 20:21 19.79884 -71.32527 29896 ft 487 kts 320°
2026-05-08 20:21 19.82459 -71.34900 29919 ft 490 kts 320°
2026-05-08 20:21 19.87614 -71.39654 29967 ft 492 kts 320°
2026-05-08 20:22 19.92767 -71.44414 29970 ft 490 kts 320°
2026-05-08 20:22 19.97891 -71.49148 29969 ft 486 kts 320°
2026-05-08 20:23 20.03010 -71.53882 29973 ft 490 kts 320°
2026-05-08 20:23 20.08177 -71.58665 29978 ft 493 kts 320°
2026-05-08 20:24 20.13363 -71.63472 29976 ft 496 kts 320°
2026-05-08 20:24 20.18539 -71.68358 29953 ft 499 kts 315°
2026-05-08 20:25 20.20635 -71.71333 29978 ft 503 kts 298°
2026-05-08 20:25 20.22013 -71.74752 29987 ft 505 kts 292°
2026-05-08 20:25 20.24715 -71.81702 29971 ft 505 kts 296°
2026-05-08 20:26 20.27597 -71.88513 29974 ft 504 kts 295°
2026-05-08 20:26 20.30291 -71.95392 29975 ft 502 kts 294°
2026-05-08 20:27 20.32900 -72.02232 29970 ft 501 kts 294°
2026-05-08 20:27 20.35563 -72.09129 29969 ft 500 kts 294°
2026-05-08 20:28 20.38222 -72.15976 29976 ft 500 kts 294°
2026-05-08 20:28 20.40953 -72.22786 29970 ft 500 kts 298°
2026-05-08 20:29 20.44576 -72.29100 29969 ft 498 kts 308°
2026-05-08 20:29 20.48822 -72.34940 29981 ft 498 kts 309°
2026-05-08 20:30 20.53083 -72.40770 29975 ft 499 kts 309°
2026-05-08 20:30 20.57324 -72.46632 29975 ft 499 kts 308°
2026-05-08 20:31 20.61546 -72.52510 29976 ft 499 kts 308°
2026-05-08 20:31 20.65756 -72.58385 29979 ft 499 kts 308°
2026-05-08 20:32 20.69976 -72.64280 29976 ft 498 kts 308°
2026-05-08 20:32 20.74154 -72.70118 29985 ft 498 kts 308°
2026-05-08 20:33 20.78363 -72.76006 29986 ft 498 kts 308°
2026-05-08 20:33 20.82599 -72.81938 29986 ft 499 kts 308°
2026-05-08 20:34 20.86802 -72.87829 29985 ft 499 kts 308°
2026-05-08 20:35 20.93115 -72.96689 29986 ft 499 kts 308°
2026-05-08 20:35 20.97286 -73.02551 29984 ft 499 kts 308°
2026-05-08 20:36 21.01487 -73.08462 29985 ft 499 kts 308°
2026-05-08 20:36 21.05685 -73.14373 29987 ft 499 kts 308°
2026-05-08 20:37 21.09887 -73.20297 29978 ft 499 kts 308°
2026-05-08 20:37 21.14088 -73.26228 29986 ft 500 kts 308°
2026-05-08 20:38 21.18289 -73.32162 29983 ft 500 kts 308°
2026-05-08 20:38 21.22520 -73.38145 29986 ft 500 kts 308°
2026-05-08 20:39 21.26718 -73.44088 29984 ft 501 kts 308°
2026-05-08 20:39 21.30923 -73.50050 29987 ft 500 kts 308°
2026-05-08 20:40 21.35117 -73.56000 29988 ft 500 kts 308°
2026-05-08 20:40 21.39299 -73.61940 29983 ft 499 kts 308°
2026-05-08 20:41 21.43487 -73.67896 29993 ft 499 kts 308°
2026-05-08 20:41 21.47674 -73.73856 29989 ft 500 kts 308°
2026-05-08 20:42 21.51852 -73.79809 29988 ft 500 kts 308°
2026-05-08 20:42 21.56035 -73.85775 29988 ft 500 kts 308°
2026-05-08 20:43 21.60216 -73.91746 29990 ft 500 kts 308°
2026-05-08 20:43 21.63695 -73.96719 29993 ft 500 kts 308°
2026-05-08 20:44 21.67863 -74.02685 29991 ft 500 kts 307°
2026-05-08 20:44 21.72039 -74.08665 29994 ft 500 kts 307°
2026-05-08 20:45 21.76204 -74.14638 29997 ft 499 kts 307°
2026-05-08 20:45 21.80368 -74.20617 29999 ft 499 kts 307°
2026-05-08 20:46 21.84538 -74.26609 29998 ft 499 kts 307°
2026-05-08 20:46 21.88698 -74.32595 29995 ft 499 kts 307°
2026-05-08 20:47 21.92852 -74.38578 30000 ft 499 kts 307°
2026-05-08 20:47 21.97005 -74.44566 29999 ft 499 kts 307°
2026-05-08 20:48 22.01160 -74.50565 29998 ft 499 kts 307°
2026-05-08 20:48 22.05305 -74.56556 29999 ft 499 kts 307°
2026-05-08 20:49 22.09447 -74.62548 29996 ft 498 kts 307°
2026-05-08 20:49 22.13589 -74.68547 29998 ft 498 kts 307°
2026-05-08 20:50 22.17725 -74.74544 29995 ft 498 kts 307°
2026-05-08 20:50 22.21846 -74.80526 29999 ft 497 kts 307°
2026-05-08 20:51 22.25973 -74.86524 30001 ft 497 kts 307°
2026-05-08 20:51 22.30095 -74.92521 29998 ft 497 kts 307°
2026-05-08 20:52 22.34213 -74.98518 30000 ft 497 kts 307°
2026-05-08 20:52 22.38327 -75.04517 30001 ft 497 kts 307°
2026-05-08 20:53 22.42428 -75.10505 29998 ft 497 kts 306°
2026-05-08 20:53 22.46543 -75.16519 30001 ft 497 kts 306°
2026-05-08 20:54 22.50650 -75.22528 30001 ft 497 kts 306°
2026-05-08 20:54 22.54750 -75.28533 30005 ft 496 kts 306°
2026-05-08 20:55 22.58843 -75.34535 30002 ft 496 kts 306°
2026-05-08 20:55 22.62940 -75.40550 30003 ft 496 kts 306°
2026-05-08 20:56 22.67026 -75.46556 29999 ft 496 kts 306°
2026-05-08 20:56 22.71115 -75.52573 30002 ft 496 kts 306°
2026-05-08 20:57 22.75203 -75.58595 30001 ft 496 kts 306°
2026-05-08 20:57 22.79286 -75.64617 30003 ft 496 kts 306°
2026-05-08 20:58 22.83379 -75.70660 30005 ft 496 kts 306°
2026-05-08 20:58 22.87451 -75.76680 30003 ft 496 kts 306°
2026-05-08 20:59 22.91529 -75.82716 30002 ft 496 kts 306°
2026-05-08 20:59 22.95608 -75.88759 30004 ft 496 kts 306°
2026-05-08 21:00 22.99684 -75.94806 30001 ft 496 kts 306°
2026-05-08 21:00 23.03746 -76.00839 29998 ft 496 kts 306°
2026-05-08 21:01 23.07816 -76.06891 30006 ft 495 kts 306°
2026-05-08 21:01 23.11881 -76.12943 29993 ft 495 kts 306°
2026-05-08 21:02 23.15940 -76.18992 30001 ft 495 kts 306°
2026-05-08 21:02 23.19985 -76.25027 29982 ft 495 kts 306°
2026-05-08 21:03 23.24036 -76.31080 29988 ft 495 kts 306°
2026-05-08 21:03 23.28077 -76.37123 30010 ft 494 kts 306°
2026-05-08 21:04 23.32124 -76.43183 30010 ft 494 kts 306°
2026-05-08 21:04 23.36156 -76.49228 30011 ft 493 kts 305°
2026-05-08 21:05 23.40180 -76.55268 29993 ft 493 kts 305°
2026-05-08 21:05 23.44210 -76.61325 29990 ft 493 kts 305°
2026-05-08 21:06 23.48192 -76.67316 29988 ft 492 kts 305°
2026-05-08 21:06 23.52202 -76.73356 29988 ft 492 kts 305°
2026-05-08 21:07 23.56238 -76.79443 29993 ft 492 kts 305°
2026-05-08 21:07 23.60239 -76.85484 30013 ft 491 kts 305°
2026-05-08 21:08 23.64225 -76.91510 29992 ft 491 kts 305°
2026-05-08 21:08 23.68223 -76.97561 29992 ft 490 kts 305°
2026-05-08 21:09 23.72205 -77.03595 29994 ft 490 kts 305°
2026-05-08 21:09 23.76170 -77.09612 29994 ft 489 kts 304°
2026-05-08 21:10 23.80150 -77.15657 29993 ft 489 kts 304°
2026-05-08 21:10 23.84111 -77.21682 30011 ft 488 kts 304°
2026-05-08 21:11 23.88061 -77.27696 29991 ft 488 kts 304°
2026-05-08 21:11 23.92008 -77.33713 29991 ft 487 kts 304°
2026-05-08 21:12 23.95956 -77.39739 29995 ft 487 kts 304°
2026-05-08 21:12 23.99901 -77.45767 29992 ft 487 kts 304°
2026-05-08 21:13 24.03824 -77.51771 29991 ft 486 kts 304°
2026-05-08 21:13 24.07763 -77.57804 29995 ft 486 kts 304°
2026-05-08 21:14 24.11684 -77.63819 29998 ft 486 kts 304°
2026-05-08 21:14 24.15610 -77.69848 29993 ft 485 kts 304°
2026-05-08 21:15 24.19518 -77.75857 29992 ft 485 kts 304°
2026-05-08 21:15 24.23417 -77.81861 29989 ft 484 kts 304°
2026-05-08 21:16 24.27324 -77.87886 29990 ft 484 kts 304°
2026-05-08 21:16 24.31087 -77.93924 29988 ft 483 kts 302°
2026-05-08 21:17 24.34814 -78.00040 29989 ft 482 kts 302°
2026-05-08 21:17 24.38546 -78.06154 29990 ft 482 kts 302°
2026-05-08 21:18 24.42314 -78.12302 29990 ft 482 kts 302°
2026-05-08 21:18 24.46023 -78.18354 29993 ft 481 kts 302°
2026-05-08 21:19 24.49752 -78.24446 29992 ft 481 kts 302°
2026-05-08 21:19 24.53455 -78.30504 29976 ft 468 kts 302°
2026-05-08 21:19 24.55240 -78.33424 29897 ft 455 kts 302°
2026-05-08 21:20 24.56990 -78.36291 29782 ft 449 kts 302°
2026-05-08 21:20 24.58720 -78.39128 29656 ft 446 kts 302°
2026-05-08 21:20 24.60446 -78.41962 29490 ft 446 kts 302°
2026-05-08 21:20 24.62173 -78.44799 29331 ft 445 kts 302°
2026-05-08 21:21 24.63885 -78.47613 29194 ft 444 kts 302°
2026-05-08 21:21 24.65625 -78.50472 29027 ft 443 kts 302°
2026-05-08 21:21 24.67312 -78.53247 28870 ft 442 kts 302°
2026-05-08 21:21 24.69041 -78.56092 28717 ft 441 kts 302°
2026-05-08 21:22 24.70721 -78.58858 28566 ft 440 kts 302°
2026-05-08 21:22 24.72418 -78.61656 28417 ft 439 kts 302°
2026-05-08 21:22 24.74107 -78.64439 28266 ft 437 kts 302°
2026-05-08 21:22 24.75791 -78.67217 28116 ft 436 kts 302°
2026-05-08 21:23 24.77474 -78.69995 27948 ft 435 kts 302°
2026-05-08 21:23 24.79174 -78.72801 27634 ft 438 kts 302°
2026-05-08 21:23 24.80844 -78.75561 27269 ft 438 kts 302°
2026-05-08 21:23 24.82543 -78.78368 26906 ft 433 kts 302°
2026-05-08 21:24 24.84202 -78.81111 26558 ft 428 kts 302°
2026-05-08 21:24 24.85293 -78.82914 26344 ft 424 kts 302°
2026-05-08 21:24 24.86918 -78.85604 26008 ft 419 kts 302°
2026-05-08 21:24 24.88524 -78.88265 25667 ft 415 kts 302°
2026-05-08 21:25 24.90132 -78.90930 25302 ft 411 kts 302°
2026-05-08 21:25 24.91711 -78.93549 24965 ft 410 kts 302°
2026-05-08 21:25 24.93297 -78.96184 24644 ft 412 kts 302°
2026-05-08 21:25 24.94882 -78.98817 24328 ft 414 kts 302°
2026-05-08 21:26 24.96472 -79.01459 24004 ft 414 kts 302°
2026-05-08 21:26 24.98063 -79.04103 23669 ft 413 kts 302°
2026-05-08 21:26 24.99645 -79.06734 23300 ft 411 kts 302°
2026-05-08 21:26 25.01225 -79.09363 22923 ft 410 kts 302°
2026-05-08 21:27 25.02790 -79.11968 22547 ft 409 kts 302°
2026-05-08 21:27 25.04359 -79.14581 22153 ft 407 kts 302°
2026-05-08 21:27 25.05920 -79.17181 21782 ft 405 kts 302°
2026-05-08 21:27 25.07473 -79.19772 21410 ft 404 kts 302°
2026-05-08 21:28 25.09016 -79.22345 21041 ft 402 kts 302°
2026-05-08 21:28 25.10552 -79.24909 20678 ft 400 kts 302°
2026-05-08 21:28 25.12090 -79.27479 20319 ft 398 kts 302°
2026-05-08 21:28 25.13609 -79.30018 19967 ft 397 kts 302°
2026-05-08 21:29 25.15124 -79.32552 19617 ft 395 kts 302°
2026-05-08 21:29 25.16636 -79.35082 19266 ft 394 kts 302°
2026-05-08 21:29 25.18143 -79.37605 18929 ft 393 kts 302°
2026-05-08 21:29 25.19643 -79.40117 18582 ft 392 kts 302°
2026-05-08 21:30 25.21133 -79.42613 18252 ft 391 kts 302°
2026-05-08 21:30 25.22629 -79.45120 17878 ft 390 kts 302°
2026-05-08 21:30 25.24120 -79.47620 17507 ft 389 kts 302°
2026-05-08 21:30 25.25606 -79.50113 17125 ft 388 kts 302°
2026-05-08 21:31 25.27092 -79.52609 16755 ft 387 kts 302°
2026-05-08 21:31 25.28557 -79.55070 16400 ft 386 kts 302°
2026-05-08 21:31 25.30037 -79.57559 16027 ft 385 kts 302°
2026-05-08 21:31 25.31507 -79.60031 15672 ft 383 kts 302°
2026-05-08 21:32 25.32961 -79.62479 15314 ft 380 kts 302°
2026-05-08 21:32 25.34422 -79.64940 14954 ft 376 kts 302°
2026-05-08 21:32 25.35846 -79.67337 14584 ft 368 kts 302°
2026-05-08 21:32 25.37209 -79.69634 14214 ft 356 kts 302°
2026-05-08 21:33 25.38566 -79.71921 13862 ft 345 kts 302°
2026-05-08 21:33 25.39886 -79.74086 13461 ft 335 kts 304°
2026-05-08 21:33 25.41222 -79.76156 13053 ft 325 kts 304°
2026-05-08 21:33 25.42524 -79.78153 12653 ft 315 kts 304°
2026-05-08 21:34 25.43775 -79.80081 12249 ft 306 kts 304°
2026-05-08 21:34 25.44995 -79.81974 12006 ft 297 kts 304°
2026-05-08 21:34 25.46205 -79.83859 12065 ft 305 kts 304°
2026-05-08 21:34 25.47441 -79.85786 12015 ft 312 kts 304°
2026-05-08 21:35 25.48696 -79.87744 11977 ft 312 kts 304°
2026-05-08 21:35 25.49961 -79.89719 11812 ft 312 kts 304°
2026-05-08 21:35 25.51215 -79.91675 11569 ft 311 kts 303°
2026-05-08 21:35 25.52449 -79.93604 11337 ft 308 kts 303°
2026-05-08 21:36 25.53676 -79.95522 11106 ft 305 kts 303°
2026-05-08 21:36 25.54904 -79.97441 10885 ft 302 kts 303°
2026-05-08 21:36 25.56112 -79.99330 10677 ft 301 kts 303°
2026-05-08 21:36 25.57319 -80.01219 10470 ft 300 kts 303°
2026-05-08 21:37 25.58515 -80.03091 10248 ft 300 kts 303°
2026-05-08 21:37 25.59727 -80.04990 10049 ft 300 kts 303°
2026-05-08 21:37 25.60945 -80.06899 9847 ft 301 kts 303°
2026-05-08 21:37 25.62146 -80.08781 9634 ft 302 kts 303°
2026-05-08 21:38 25.63354 -80.10675 9428 ft 303 kts 303°
2026-05-08 21:38 25.64585 -80.12607 9212 ft 303 kts 303°
2026-05-08 21:38 25.65761 -80.14527 8994 ft 303 kts 297°
2026-05-08 21:38 25.66696 -80.16626 8732 ft 301 kts 292°
2026-05-08 21:39 25.67553 -80.18765 8427 ft 296 kts 292°
2026-05-08 21:39 25.68383 -80.20797 8093 ft 286 kts 292°
2026-05-08 21:39 25.69200 -80.22767 7894 ft 274 kts 293°
2026-05-08 21:39 25.69989 -80.24646 7740 ft 274 kts 293°
2026-05-08 21:40 25.70799 -80.26566 7542 ft 278 kts 292°
2026-05-08 21:40 25.71267 -80.28593 7327 ft 274 kts 268°
2026-05-08 21:40 25.71161 -80.30684 7122 ft 271 kts 265°
2026-05-08 21:41 25.70929 -80.34813 6524 ft 264 kts 266°
2026-05-08 21:41 25.70828 -80.36808 6229 ft 259 kts 266°
2026-05-08 21:41 25.70731 -80.38772 5935 ft 254 kts 267°
2026-05-08 21:41 25.70638 -80.40708 5638 ft 250 kts 267°
2026-05-08 21:42 25.70544 -80.42639 5338 ft 246 kts 267°
2026-05-08 21:42 25.70446 -80.44501 5044 ft 241 kts 266°
2026-05-08 21:42 25.70330 -80.46347 4774 ft 241 kts 267°
2026-05-08 21:42 25.70216 -80.48219 4474 ft 243 kts 266°
2026-05-08 21:43 25.70083 -80.50094 4253 ft 241 kts 265°
2026-05-08 21:43 25.69936 -80.51934 4071 ft 238 kts 265°
2026-05-08 21:43 25.69783 -80.53742 4026 ft 238 kts 264°
2026-05-08 21:43 25.69627 -80.55578 4022 ft 234 kts 265°
2026-05-08 21:44 25.69477 -80.57376 4018 ft 236 kts 265°
2026-05-08 21:44 25.69324 -80.59208 4016 ft 238 kts 264°
2026-05-08 21:44 25.69306 -80.61032 3917 ft 240 kts 282°
2026-05-08 21:44 25.70056 -80.62635 3860 ft 236 kts 314°
2026-05-08 21:45 25.71475 -80.63553 3873 ft 239 kts 346°
2026-05-08 21:45 25.73105 -80.63511 3874 ft 240 kts 18°
2026-05-08 21:45 25.74651 -80.62752 3890 ft 242 kts 27°
2026-05-08 21:45 25.76118 -80.61822 3854 ft 241 kts 38°
2026-05-08 21:46 25.77098 -80.60369 3843 ft 235 kts 71°
2026-05-08 21:46 25.77437 -80.58587 3903 ft 241 kts 83°
2026-05-08 21:46 25.77577 -80.56758 3851 ft 234 kts 87°
2026-05-08 21:46 25.77650 -80.54994 3839 ft 222 kts 88°
2026-05-08 21:47 25.77712 -80.53328 3777 ft 211 kts 88°
2026-05-08 21:47 25.77776 -80.51724 3502 ft 206 kts 88°
2026-05-08 21:47 25.77840 -80.50166 3258 ft 198 kts 88°
2026-05-08 21:47 25.77900 -80.48682 2991 ft 188 kts 88°
2026-05-08 21:48 25.77957 -80.47284 2784 ft 175 kts 88°
2026-05-08 21:48 25.78015 -80.45934 2553 ft 174 kts 89°
2026-05-08 21:48 25.78070 -80.44586 2342 ft 172 kts 89°
2026-05-08 21:48 25.78127 -80.43286 2108 ft 170 kts 89°
2026-05-08 21:49 25.78178 -80.42009 1892 ft 166 kts 89°
2026-05-08 21:49 25.78228 -80.40774 1668 ft 167 kts 89°
2026-05-08 21:49 25.78279 -80.39512 1479 ft 164 kts 89°
2026-05-08 21:49 25.78333 -80.38262 1288 ft 161 kts 90°
2026-05-08 21:50 25.78383 -80.37003 1078 ft 168 kts 89°
2026-05-08 21:50 25.78437 -80.35674 824 ft 175 kts 91°
2026-05-08 21:50 25.78483 -80.34328 659 ft 172 kts 90°
2026-05-08 21:50 25.78502 -80.33080 324 ft 171 kts 88°
2026-05-08 21:51 25.78598 -80.31754 159 ft 164 kts 85°
2026-05-08 21:51 25.78659 -80.30666 28 ft 152 kts 88°
2026-05-08 21:51 25.78679 -80.29978 22 ft 121 kts 87°
2026-05-08 21:51 25.78714 -80.29157 27 ft 45 kts 87°
2026-05-08 21:52 25.78723 -80.28934 25 ft 30 kts 87°
2026-05-08 21:52 25.78756 -80.28766 26 ft 16 kts 63°
2026-05-08 21:52 25.78799 -80.28702 23 ft 14 kts 47°
2026-05-08 21:52 25.78864 -80.28623 25 ft 14 kts 63°
2026-05-08 21:53 25.78879 -80.28519 23 ft 14 kts 86°
2026-05-08 21:53 25.78884 -80.28411 29 ft 14 kts 88°
2026-05-08 21:53 25.78888 -80.28307 25 ft 14 kts 86°
2026-05-08 21:53 25.78894 -80.28201 26 ft 14 kts 85°
2026-05-08 21:54 25.78903 -80.28095 29 ft 14 kts 84°
2026-05-08 21:54 25.78898 -80.27992 27 ft 13 kts 111°
2026-05-08 21:54 25.78874 -80.27896 27 ft 13 kts 89°
2026-05-08 21:54 25.78877 -80.27796 23 ft 13 kts 87°
2026-05-08 21:55 25.78881 -80.27694 22 ft 13 kts 87°
2026-05-08 21:55 25.78889 -80.27626 26 ft 13 kts 80°
2026-05-08 21:55 25.78904 -80.27545 27 ft 8 kts 75°
2026-05-08 21:56 25.78984 -80.27506 25 ft 4 kts 359°
2026-05-08 21:56 25.79012 -80.27508 24 ft 4 kts 354°
2026-05-08 21:56 25.79025 -80.27525 23 ft 3 kts 297°
2026-05-08 21:56 25.79027 -80.27539 27 ft 2 kts 277°
2026-05-08 21:57 25.79028 -80.27556 25 ft 3 kts 272°
2026-05-08 21:57 25.79027 -80.27576 27 ft 3 kts 266°
2026-05-08 21:57 25.79026 -80.27591 27 ft 2 kts 266°
2026-05-08 21:57 25.79026 -80.27594 27 ft 0 kts 266°